Regional Weather Roundup
Issued by NWS

Home | Current Version | Previous Version | Graphics & Text | Print | Product List | Glossary Off
Versions: 1 2 3 4 5 6 7 8 9 10 11 12 13 14 15 16 17 18 19 20 21 22 23 24 25 26 27 28 29 30 31 32 33 34 35 36 37 38 39 40 41 42 43 44 45 46 47 48 49 50

350
ASUS43 KMKX 250800
RWRWI

WISCONSIN REGIONAL WEATHER ROUNDUP
NATIONAL WEATHER SERVICE MILWAUKEE/SULLIVAN WI
300 AM CDT TUE JUL 25 2017

NOTE: "FAIR" INDICATES FEW OR NO CLOUDS BELOW 12,000 FEET WITH NO
SIGNIFICANT WEATHER AND/OR OBSTRUCTIONS TO VISIBILITY.

WIZ001-002-006>008-014>016-023>028-250900-
NORTHWEST WISCONSIN

CITY           SKY/WX    TMP DP  RH WIND       PRES   REMARKS
SUPERIOR ARPT  NOT AVBL
ASHLAND        PTCLDY    51  51 100 CALM      30.08R
HAYWARD        CLOUDY    61  58  90 S5        30.09R
SIREN          CLOUDY    64  58  83 CALM      30.06S
CUMBERLAND     CLOUDY    61  57  88 S8        30.08S
RICE LAKE      CLOUDY    61  58  90 SE6       30.10R
CHETEK         CLOUDY    60  58  96 SE5       30.10R
LADYSMITH      CLOUDY    59  56  91 SE5       30.12S
EAU CLAIRE     NOT AVBL
MENOMONIE      PTCLDY    61  59  95 E3        30.10R
NEW RICHMOND   LGT RAIN  64  58  81 SE14      30.04F
OSCEOLA        CLOUDY    67  60  79 S9        30.07F
$$

WIZ003>005-009-010-017-018-250900-
NORTH CENTRAL WISCONSIN

CITY           SKY/WX    TMP DP  RH WIND       PRES   REMARKS
MANITOWISH WTR MOCLDY    57  57 100 S5        30.12F
ARBOR VITAE    PTCLDY    62  56  80 S9        30.12F
WOODRUFF       PTCLDY    62  56  80 S9        30.12F
RHINELANDER    MOCLDY    57  52  83 CALM      30.14F
EAGLE RIVER    PTCLDY    56  53  91 CALM      30.14S
LAND O LAKES   CLOUDY    51  51 100 CALM      30.15F
PHILLIPS       CLOUDY    58  56  92 S6        30.13R
TOMAHAWK         N/A     53  51  93 CALM      30.14F
MEDFORD        PTCLDY    58  55  89 S3        30.13S
MERRILL        PTCLDY    54  52  94 CALM      30.15S
$$

WIZ029-030-035-036-043>047-250900-
CENTRAL WISCONSIN

CITY           SKY/WX    TMP DP  RH WIND       PRES   REMARKS
WAUSAU         PTCLDY    57  52  83 SE5       30.14S
MOSINEE        CLOUDY    54  52  94 SE5       30.16S
MARSHFIELD     CLEAR     59  53  80 S7        30.13F
STEVENS POINT  CLOUDY    53  52  99 CALM      30.16S
WAUPACA        CLOUDY    55  54  96 CALM      30.15F
WAUTOMA        CLEAR     53  52  96 CALM      30.17R
WISC RAPIDS    CLEAR     57  54  89 SW6       30.16S
CAMP DOUGLAS   CLEAR     52  52 100 SE5       30.13S FOG
$$

WIZ011>013-019>022-031-037>040-048>050-250900-
NORTHEAST WISCONSIN

CITY           SKY/WX    TMP DP  RH WIND       PRES   REMARKS
ANTIGO         PTCLDY    53  51  92 S3        30.17S
SHAWANO        CLOUDY    59  54  83 CALM      30.15S
OCONTO         PTCLDY    53  51  96 CALM      30.14S
STURGEON BAY     N/A     55  52  89 CALM      30.15S
GREEN BAY      PTCLDY    55  55 100 CALM      30.15S
MANITOWOC      NOT AVBL
APPLETON       CLOUDY    63  43  48 E3        30.14S
CLINTONVILLE   PTCLDY   N/A N/A N/A CALM      30.14F
OSHKOSH        PTCLDY    54  50  86 CALM      30.14S
$$

WIZ032>034-041-042-053>061-250900-
SOUTHWEST WISCONSIN

CITY           SKY/WX    TMP DP  RH WIND       PRES   REMARKS
LA CROSSE      CLEAR     64  60  87 E6        30.10S
SPARTA         PTCLDY    53  53  99 CALM      30.12F
VIROQUA        CLEAR     59  59 100 CALM      30.13F
BOSCOBEL       MOCLDY    59  58  96 CALM      30.13S FOG
PRAIRIE DU CHI CLEAR     60  58  94 CALM      30.11R
PLATTEVILLE    CLEAR     60  60 100 E5        30.14S
$$

WIZ056-057-062-063-064-067-068-250900-
SOUTH CENTRAL WISCONSIN

CITY           SKY/WX    TMP DP  RH WIND       PRES   REMARKS
REEDSBURG      CLEAR     57  57 100 CALM      30.14S
BARABOO/DELLS  CLEAR     59  52  77 CALM      30.15S
LONE ROCK      CLEAR     58  57  97 CALM      30.13F FOG
MINERAL POINT  CLEAR     61  61 100 E5        30.14F
MADISON        CLEAR     54  53  97 CALM      30.15S
MIDDLETON      CLEAR     54  54 100 CALM      30.16S
WATERTOWN      CLEAR     53  53 100 CALM      30.15R
MONROE         CLEAR     59  55  88 CALM      30.15S
JANESVILLE     PTCLDY    55  55 100 CALM      30.15S
$$

WIZ051-052-058>065-066-070>072-250900-
SOUTHEAST WISCONSIN

CITY           SKY/WX    TMP DP  RH WIND       PRES   REMARKS
MILWAUKEE      PTCLDY    60  57  89 CALM      30.15R
WAUKESHA       CLOUDY    52  52 100 CALM      30.16S
MILWAUKEE/TIMM CLEAR     55  52  88 CALM      30.15S
RACINE         PTCLDY    58  56  93 CALM      30.16R
KENOSHA        CLOUDY    55  53  93 CALM      30.15R
FOND DU LAC    PTCLDY    51  48  89 CALM      30.15R
SHEBOYGAN      PTCLDY    51  51 100 CALM      30.15R
WEST BEND      PTCLDY    50  50 100 CALM      30.15S
JUNEAU         CLEAR     52  51  95 CALM      30.16R
$$

LSZ147-162-250900-
LAKE SUPERIOR

STATION/POSITION TIME  TEMP    WIND        PRES    WAVE
                       AIR SEA DIR/SP/G            HT/PER
                 (UTC) (F)     (DEG/KT/KT) (MB)    (FT/S)
W MID LAKE BUOY  0650   56 49  170/  8/ 10 1017.6F   0
DEVILS ISLAND    0700   63     300/  3/  3 1017.8R
SAXON HARBOR     0740   58     210/  3/  5 1017.9R
$$

LMZ867-665-643>646-250900-
LAKE MICHIGAN

STATION/POSITION TIME  TEMP    WIND        PRES    WAVE
                       AIR SEA DIR/SP/G            HT/PER
                 (UTC) (F)     (DEG/KT/KT) (MB)    (FT/S)
CHAMBERS ISLAND  0740   56     180/  1/  2 1020.0S
S GREEN BAY BUOY 0730   68 72  150/  6/  6 1020.4R
N MID LAKE BUOY  0650   65 66   60/  2/  2 1021.3R   0
NORTHPORT PIER   0740   59        CALM     1020.7R
KEWAUNEE LAKESHO 0730   55     310/  3/  4 1019.9R
SHEBOYGAN LAKESH 0700   62     310/  3/  3 1020.5R
PORT WASHINGTON  0730   58     270/  3/  4 1021.7R
ATWATER BUOY     0609   67 68   50/  6/  8 1020.6F
MILWAUKEE LAKESH 0730   66      80/  3/  4   N/A
S MID LAKE BUOY  0650   69 71   40/  6/  8 1020.3F   2/ 6
KENOSHA   LAKESH 0700   66      CALM  /  1 1020.3
$$

TC  - TEMPERATURE IN CELSIUS
VSB - VISIBILITY IN STATUTE MILES
WCI - WIND CHILL INDEX
HX  - HEAT INDEX





USA.gov is the U.S. government's official web portal to all federal, state and local government web resources and services.